Location: Shenandoah County Park
(38.9356°N, 78.4524°W)
Time: 18:36:15
(UTC-05:00)

BlueWalker 3 - Pass Details

Date: 07 December 2022
Orbit: 499 x 517 km, 53.2° (Epoch: 28 January)

Event Time Altitude Azimuth Distance (km) Brightness Sun altitude
Rises 18:57:44 0° 315° (NW) 2,625 6.0 -23.9°
Reaches altitude 10° 19:00:02 10° 323° (NW) 1,732 5.0 -24.3°
Enters shadow 19:01:37 21° 336° (NNW) 1,172 3.9 -24.6°
